Printer-friendly version

IAU Minor Planet Center

Minor Planet Center

MPEC 2008-X60 : COMET C/2008 T2 (CARDINAL)

The following Minor Planet Electronic Circular may be linked-to from your own Web pages, but must not otherwise be redistributed electronically.


Read MPEC 2008-X59 Read MPEC 2008-X61


M.P.E.C. 2008-X60                                Issued 2008 Dec. 8, 00:09 UT

     The Minor Planet Electronic Circulars contain information on unusual
         minor planets and routine data on comets.  They are published
   on behalf of Commission 20 of the International Astronomical Union by the
          Minor Planet Center, Smithsonian Astrophysical Observatory,
                          Cambridge, MA 02138, U.S.A.

             Prepared using the Tamkin Foundation Computer Network

                              MPC@CFA.HARVARD.EDU
          URL http://www.cfa.harvard.edu/iau/mpc.html  ISSN 1523-6714

                          COMET C/2008 T2 (CARDINAL)

Observations:
    CK08T020  C2008 12 01.68408 07 10 47.41 +89 24 17.7          16.8 N EX060900
    CK08T020  C2008 12 01.69206 07 10 15.61 +89 24 21.2                 EX060900
    CK08T020  C2008 12 02.44572 06 13 17.26 +89 28 43.7          16.1 N EX060H45
    CK08T020  C2008 12 02.44785 06 13 05.92 +89 28 44.5          16.1 N EX060H45
    CK08T020  C2008 12 02.44973 06 12 56.74 +89 28 45.2          16.3 N EX060H45
    CK08T020  C2008 12 02.45157 06 12 47.59 +89 28 45.5          16.2 N EX060H45
    CK08T020  C2008 12 02.45317 06 12 37.27 +89 28 46.0          16.2 N EX060H45
    CK08T020  C2008 12 02.45448 06 12 30.21 +89 28 46.2          16.3 N EX060H45
    CK08T020  C2008 12 02.83012 05 39 08.64 +89 29 58.9          15.7 N EX060A77
    CK08T020  C2008 12 02.83787 05 38 24.65 +89 30 00.4          15.8 N EX060A77
    CK08T020  C2008 12 02.84715 05 37 32.66 +89 30 02.1          15.7 N EX060A77
    CK08T020  C2008 12 05.01410 02 31 30.46 +89 22 24.1          15.8 N EX060J24
    CK08T020  C2008 12 05.03255 02 30 30.63 +89 22 14.1          15.9 N EX060J24
    CK08T020  C2008 12 05.04184 02 29 55.77 +89 22 09.9          15.9 N EX060J24
    CK08T020  C2008 12 06.00427 01 43 46.86 +89 12 59.1          16.4 N EX060585
    CK08T020  C2008 12 06.01063 01 43 27.81 +89 12 55.2          16.5 N EX060585
    CK08T020  C2008 12 06.01811 01 43 02.83 +89 12 51.4                 EX060585

Observer details:
585 Kiev comet station.  Observers A. Baransky, V. Ponomarenko.  0.7-m f/4
    reflector + CCD.
900 Moriyama.  Observer Y. Ikari.  0.26-m f/7.0 reflector + CCD.
A77 Observatoire Chante-Perdrix, Dauban.  Observers C. Rinner, F. Kugel.
    Measurer F. Kugel.  0.5-m f/3 reflector + CCD.
H45 Petit Jean Mountain South.  Observer P. C. Sherrod.  0.51-m f/4.3
    astrograph + CCD.
J24 Observatorio Altamira.  Observer J. F. Hernandez.  0.4-m f/10
    Schmidt-Cassegrain + CCD.

Orbital elements:
    C/2008 T2 (Cardinal)
Epoch 2009 June 18.0 TT = JDT 2455000.5
T 2009 June 13.22509 TT                                 MPC
q   1.2022165            (2000.0)            P               Q
z  -0.0001077      Peri.  215.86850     -0.76755509     +0.02805348
 +/-0.0000434      Node   309.67531     +0.57575714     -0.40890759
e   1.0001295      Incl.   56.30466     -0.28171420     -0.91214450
Residuals in seconds of arc
081001 661 (2.7-  2.3-)   081015 349  0.0   0.5+    081031 H45  0.2-  0.3-
081001 661 (3.1-  1.4-)   081016 355  0.4-  0.2-    081031 H45  0.0   0.5-
081006 661  1.2-  0.4+    081016 355  0.1-  0.2-    081102 H45  0.3+  0.1+
081007 661  0.3+  0.0     081016 355  0.0   0.4-    081102 H45  0.2+  0.1+
081008 H01  0.8+  0.2+    081016 355  0.3-  0.1+    081102 H45  0.5+  0.1-
081008 H01  0.9+  0.4+    081017 A77  0.8-  1.1-    081102 H45  0.5+  0.5-
081008 H10  0.5-  0.3-    081017 B30  1.2+  1.0+    081102 H45  0.5+  0.1-
081008 661  1.4-  0.3-    081017 B30 (2.3+  2.7+)   081102 H45  0.7+  0.1+
081008 H01  0.8+  0.5-    081018 I22  0.0   0.2-    081102 987  0.3+  0.2+
081008 H10  0.3-  0.4-    081018 I22  0.3+  0.1-    081102 987  0.0   0.7-
081008 H01  1.1+  0.0     081019 750  0.9-  0.4-    081102 987  0.3+  0.3+
081008 H10  0.3-  0.5-    081019 750  0.1+  0.1+    081102 987  0.3+  0.3+
081008 661  0.8-  0.6-    081019 750  0.2-  0.1+    081104 900  0.3+  0.0
081008 H36  0.3-  0.0     081019 I22  1.4-  0.9-    081104 900  0.2+  0.2+
081008 H36  0.4-  0.0     081019 I22  0.1-  0.2-    081104 372  0.1+  0.2+
081008 H36  0.4-  0.1-    081020 I22  0.7+  0.8+    081104 056  0.0   0.0
081008 661  1.3-  0.3-    081020 215  1.8-  1.8-    081104 056  0.3+  0.1+
081008 H36  0.5-  0.0     081020 215  0.7-  0.4-    081104 056  0.3+  0.1+
081008 900 (1.0-  3.9-)   081020 215  1.0-  0.3-    081106 585  1.1-  0.3-
081008 900  0.9-  1.0-    081020 A71 (0.4-  2.4-)   081106 585  0.4-  0.1+
081008 661  0.8-  0.8-    081020 A71  0.9-  0.2-    081106 585  0.8-  0.5-
081008 661  0.8-  0.7+    081021 056  0.3+  0.1-    081108 945  0.3+  0.1-
081008 673  0.7+  0.3+    081021 056  0.1+  0.0     081108 945  0.2+  0.3+
081008 673  0.9+  0.5+    081021 056  0.0   0.1+    081108 945  0.6+  0.5+
081008 673  0.7+  0.0     081021 900  0.4+  0.4-    081108 945  0.6+  0.6+
081008 673  1.0+  0.1+    081021 900  0.2+  0.1-    081108 945  1.1+  0.4+
081008 372  0.5-  0.8+    081022 585  0.3-  0.4-    081109 056  0.6+  0.3+
081008 372  0.3+  0.3+    081022 585  0.2-  0.5-    081109 056  0.1+  0.3-
081008 372  0.6+  0.1-    081022 585  1.5-  0.3-    081109 056  0.4+  0.3+
081008 D35  0.2+  0.4-    081022 585  1.2-  1.1-    081111 B42  1.6+  0.6+
081008 D35  0.2+  0.2+    081022 585  0.5-  0.1-    081111 B42  1.0+  1.5+
081008 D35  0.1-  0.9-    081022 585  0.3+  0.4-    081113 349  0.5-  0.1-
081008 900  0.1+  0.0     081023 056  0.2-  0.1-    081113 349  0.5-  0.1+
081008 900  0.1+  0.3-    081023 056  0.8+  0.6-    081113 349  0.3-  0.1+
081008 I22  0.2+  0.0     081023 056  0.4-  0.0     081114 J38  0.8-  0.3+
081009 I22  1.7+  1.2+    081023 056  0.1+  0.2+    081114 J38  0.2-  0.3+
081009 673  0.5+  1.3+    081023 056  0.5-  0.1-    081114 J38  0.2-  0.6+
081009 673  1.7-  0.0     081024 510  0.3+  0.1-    081115 J38  1.8-  0.3-
081009 673  0.5+  0.4+    081024 510  0.8+  0.2+    081115 J38  0.6-  0.3-
081009 673  0.3+  1.0+    081024 510  0.3+  0.6+    081118 G86  1.2-  0.4-
081009 D78  0.2+  0.7-    081024 B30 (1.1-  3.5+)   081119 585  0.9+  0.6+
081009 D78  1.6+  0.6-    081024 B30  0.7+  1.7+    081119 585  0.8+  0.9-
081009 900  0.0   0.2+    081024 B30  0.8+  1.9+    081119 585  0.6+  0.5-
081009 900  0.6+  0.3+    081024 B30  0.6+  1.3+    081119 585  1.2+  0.9-
081009 349  0.1-  0.1+    081025 J38  1.1-  0.3-    081119 585 (2.0+  1.7-)
081009 349  0.0   0.0     081025 J38  0.5-  0.2-    081119 900  0.2+  0.0
081009 349  0.1-  0.2+    081025 J38  0.6-  0.1-    081119 900  0.0   0.0
081009 104  0.3+  0.2-    081026 945  0.9-  0.2+    081119 204  0.3-  0.2+
081009 104  0.2+  0.2-    081026 945  0.3-  0.6+    081119 204  0.2-  0.1-
081009 104  0.2+  0.1-    081026 945  0.3-  0.1+    081123 J53  0.1-  0.1+
081009 510  0.7+  0.0     081026 945  0.3-  1.4+    081123 J53  0.0   0.1-
081009 510  0.5+  0.3+    081026 945  1.7-  0.1+    081123 J53  0.1-  0.0
081009 204  0.5-  0.0     081026 673  0.3+  0.3+    081123 J96  0.0   0.0
081009 204  0.7-  0.1-    081026 673  0.8+  0.1-    081123 J96  0.3+  0.3+
081009 204  0.7-  0.1-    081026 673  0.6+  0.1+    081123 J96  0.3+  0.3+
081010 H10  0.6+  0.1+    081026 673  0.6+  0.1-    081127 J38  0.0   0.2+
081010 H10  0.9+  0.2+    081026 J20  0.6+  0.6-    081127 J38  0.4-  0.1+
081010 H10  1.0+  0.6+    081026 J20 (2.0-  0.4-)   081127 J38  0.2-  0.3+
081010 629  1.6-  0.8+    081026 J20  0.3-  0.4-    081127 235  0.5+  0.2-
081010 629  0.7+  0.3-    081026 B70  0.8-  0.1-    081130 B15  0.2-  0.1-
081011 750  0.2-  0.3-    081027 372  0.6+  0.3-    081130 B15  0.4-  0.2-
081011 750  0.5-  0.3-    081027 372  0.6+  0.3-    081130 B15  0.2-  0.2-
081011 750  0.7-  0.1-    081027 349  0.3-  0.1-    081130 B15  0.1-  0.2-
081011 I22  0.3-  0.6+    081027 349  0.1-  0.1-    081201 900  0.6+  0.0
081011 I22  0.0   0.2-    081027 349  0.2-  0.1+    081201 900  0.6+  0.1+
081011 900  0.1+  0.4-    081027 372  0.4+  0.0     081202 H45  0.4+  0.1-
081011 900  0.3+  0.1-    081028 H45  0.3-  0.4-    081202 H45  0.4+  0.2+
081011 I22  0.0   0.2+    081028 H45  0.3-  0.6-    081202 H45  0.5+  0.4+
081012 I22  0.0   0.6+    081028 H45  0.1-  0.0     081202 H45  0.5+  0.3+
081012 367  0.4-  0.0     081028 H45  0.0   0.3-    081202 H45  0.3+  0.4+
081012 367  0.4-  0.0     081028 H45  0.2-  0.3-    081202 H45  0.2+  0.3+
081012 367  0.1-  0.1-    081028 H45  0.2+  0.5-    081202 A77  0.5-  0.5-
081012 367  0.2-  0.0     081028 H45  0.2+  0.0     081202 A77  0.5-  0.2-
081012 510  1.1+  0.1+    081030 H06  0.5-  0.3-    081202 A77  0.3-  0.1+
081012 510  0.9+  0.3+    081030 H06  1.3-  0.3-    081205 J24  1.2-  1.2-
081012 510  1.9+  0.0     081030 H06 (2.5+  2.5+)   081205 J24  0.2+  1.8-
081014 I22  0.3+  1.1+    081030 900  0.3+  0.0     081205 J24  0.1+  1.3-
081014 I22 (4.6+  0.5-)   081030 900  0.2-  0.1-    081206 585  1.0+  1.1+
081015 900  0.3-  0.0     081031 H45  0.4+  0.1+    081206 585  0.0   1.3+
081015 900  0.0   0.2-    081031 H45  0.0   0.2+    081206 585 (1.6-  2.3+)
081015 349  0.2-  0.2+    081031 H45  0.1-  0.2-
081015 349  0.1-  0.4+    081031 H45  0.3+  0.2-

     The "original" and "future" barycentric values of 1/a are -0.000018
and +0.000245 (+/- 0.000043) AU^-1, respectively.

Brian G. Marsden             (C) Copyright 2008 MPC           M.P.E.C. 2008-X60

Read MPEC 2008-X59 Read MPEC 2008-X61


Our Web policy. Index to the CBAT/MPC/ICQ pages.


Valid HTML 4.01!